When you browse on this site, cookies collect data to enhance your experience and personalize the content and advertising you see.
Visit our Privacy Policy to learn more. By continuing to use the site, you agree to this use of cookies and data.
  • In Latvia
  • List of Countries
  • For 7 days
  • Water Temperature
  • Satellite Maps
  • Weather Map
  • Weather Widgets
  • user-avatar
    Login

    Hourly Weather Tirana

    Today, 20 July, Saturday

    Time Temperature Precipitation Wind Pressure Humidity
    00:00 +23°C° 0 mm 1 mps 755 mmHg 70%
    01:00 +22°C° 0 mm 1 mps 755 mmHg 70%
    02:00 +22°C° 0 mm 1 mps 755 mmHg 70%
    03:00 +22°C° 0 mm 1 mps 755 mmHg 69%
    04:00 +22°C° 0 mm 1 mps 755 mmHg 69%
    05:00 +23°C° 0 mm 1 mps 755 mmHg 64%
    06:00 +25°C° 0 mm 1 mps 755 mmHg 58%
    07:00 +27°C° 0 mm 1 mps 755 mmHg 52%
    08:00 +28°C° 0 mm 1 mps 755 mmHg 47%
    09:00 +30°C° 0 mm 2 mps 756 mmHg 42%
    10:00 +32°C° 0 mm 2 mps 756 mmHg 37%
    11:00 +34°C° 0 mm 3 mps 756 mmHg 36%
    12:00 +34°C° 0 mm 4 mps 756 mmHg 35%
    13:00 +35°C° 0 mm 5 mps 755 mmHg 34%
    14:00 +34°C° 0 mm 5 mps 755 mmHg 37%
    15:00 +33°C° 0 mm 5 mps 755 mmHg 40%
    16:00 +32°C° 0 mm 5 mps 755 mmHg 43%
    17:00 +29°C° 0 mm 4 mps 755 mmHg 48%
    18:00 +28°C° 0 mm 3 mps 756 mmHg 54%
    19:00 +26°C° 0 mm 3 mps 756 mmHg 59%
    20:00 +25°C° 0 mm 2 mps 756 mmHg 60%
    21:00 +24°C° 0 mm 1 mps 756 mmHg 61%
    22:00 +24°C° 0 mm 1 mps 756 mmHg 62%
    23:00 +23°C° 0 mm 1 mps 756 mmHg 63%

    Tomorrow, 21 July, Sunday

    Time Temperature Precipitation Wind Pressure Humidity
    00:00 +23°C° 0 mm 1 mps 756 mmHg 65%
    01:00 +21°C° 0 mm 0 mps 756 mmHg 66%
    02:00 +23°C° 0 mm 1 mps 756 mmHg 67%
    03:00 +22°C° 0 mm 1 mps 756 mmHg 67%
    04:00 +22°C° 0 mm 1 mps 756 mmHg 68%
    05:00 +24°C° 0 mm 1 mps 756 mmHg 62%
    06:00 +26°C° 0 mm 1 mps 756 mmHg 56%
    07:00 +26°C° 0 mm 0 mps 756 mmHg 50%
    08:00 +29°C° 0 mm 1 mps 756 mmHg 45%
    09:00 +31°C° 0 mm 2 mps 756 mmHg 40%
    10:00 +34°C° 0 mm 3 mps 757 mmHg 34%
    11:00 +35°C° 0 mm 3 mps 756 mmHg 34%
    12:00 +35°C° 0 mm 4 mps 756 mmHg 33%
    13:00 +36°C° 0 mm 5 mps 756 mmHg 33%
    14:00 +35°C° 0 mm 5 mps 756 mmHg 35%
    15:00 +34°C° 0 mm 5 mps 756 mmHg 37%
    16:00 +34°C° 0 mm 5 mps 756 mmHg 39%
    17:00 +32°C° 0 mm 4 mps 756 mmHg 45%
    18:00 +29°C° 0 mm 3 mps 756 mmHg 51%
    19:00 +27°C° 0 mm 2 mps 756 mmHg 58%
    20:00 +26°C° 0 mm 2 mps 756 mmHg 60%
    21:00 +25°C° 0 mm 2 mps 756 mmHg 62%
    22:00 +25°C° 0 mm 1 mps 757 mmHg 64%
    23:00 +25°C° 0 mm 1 mps 757 mmHg 64%

    Day after tomorrow, 22 July, Monday

    Time Temperature Precipitation Wind Pressure Humidity
    00:00 +25°C° 0 mm 1 mps 756 mmHg 65%
    01:00 +24°C° 0 mm 1 mps 756 mmHg 65%
    02:00 +24°C° 0 mm 1 mps 756 mmHg 64%
    03:00 +24°C° 0 mm 1 mps 756 mmHg 63%
    04:00 +24°C° 0 mm 1 mps 756 mmHg 62%
    05:00 +26°C° 0 mm 1 mps 756 mmHg 57%
    06:00 +27°C° 0 mm 1 mps 756 mmHg 52%
    07:00 +29°C° 0 mm 1 mps 756 mmHg 47%
    08:00 +31°C° 0 mm 1 mps 756 mmHg 42%
    09:00 +34°C° 0 mm 2 mps 756 mmHg 37%
    10:00 +36°C° 0 mm 3 mps 756 mmHg 32%
    11:00 +37°C° 0 mm 4 mps 756 mmHg 30%
    12:00 +38°C° 0 mm 4 mps 755 mmHg 28%
    13:00 +40°C° 0 mm 5 mps 755 mmHg 27%
    14:00 +39°C° 0 mm 6 mps 755 mmHg 30%
    15:00 +38°C° 0 mm 6 mps 755 mmHg 32%
    16:00 +36°C° 0 mm 6 mps 754 mmHg 35%
    17:00 +34°C° 0 mm 6 mps 754 mmHg 42%
    18:00 +32°C° 0 mm 5 mps 754 mmHg 48%
    19:00 +29°C° 0 mm 4 mps 755 mmHg 54%
    20:00 +28°C° 0 mm 3 mps 755 mmHg 55%
    21:00 +27°C° 0 mm 2 mps 755 mmHg 56%
    22:00 +27°C° 0 mm 2 mps 755 mmHg 57%
    23:00 +26°C° 0 mm 2 mps 755 mmHg 56%

    23 July, Tuesday

    Time Temperature Precipitation Wind Pressure Humidity
    00:00 +26°C° 0 mm 1 mps 755 mmHg 56%
    01:00 +26°C° 0 mm 1 mps 755 mmHg 55%
    02:00 +26°C° 0 mm 1 mps 754 mmHg 55%
    03:00 +26°C° 0 mm 2 mps 754 mmHg 54%
    04:00 +25°C° 0 mm 2 mps 754 mmHg 54%
    05:00 +27°C° 0 mm 2 mps 754 mmHg 51%
    06:00 +29°C° 0 mm 2 mps 754 mmHg 49%
    07:00 +30°C° 0 mm 3 mps 754 mmHg 47%
    08:00 +33°C° 0 mm 3 mps 754 mmHg 42%
    09:00 +35°C° 0 mm 3 mps 754 mmHg 37%
    10:00 +37°C° 0 mm 4 mps 754 mmHg 32%
    11:00 +39°C° 0 mm 5 mps 754 mmHg 28%
    12:00 +39°C° 0 mm 6 mps 753 mmHg 24%
    13:00 +40°C° 0 mm 7 mps 753 mmHg 20%
    14:00 +39°C° 0 mm 7 mps 753 mmHg 23%
    15:00 +38°C° 0 mm 8 mps 752 mmHg 25%
    16:00 +37°C° 0 mm 9 mps 752 mmHg 27%
    17:00 +34°C° 0 mm 8 mps 752 mmHg 35%
    18:00 +32°C° 0 mm 7 mps 752 mmHg 43%
    19:00 +28°C° 0 mm 6 mps 752 mmHg 50%
    20:00 +28°C° 0 mm 6 mps 752 mmHg 52%
    21:00 +27°C° 0 mm 5 mps 753 mmHg 54%
    22:00 +26°C° 0 mm 4 mps 753 mmHg 55%
    23:00 +26°C° 0 mm 3 mps 753 mmHg 54%

    24 July, Wednesday

    Time Temperature Precipitation Wind Pressure Humidity
    00:00 +26°C° 0 mm 3 mps 753 mmHg 53%
    01:00 +25°C° 0 mm 3 mps 752 mmHg 52%
    02:00 +25°C° 0 mm 3 mps 752 mmHg 52%
    03:00 +24°C° 0 mm 3 mps 752 mmHg 52%
    04:00 +23°C° 0 mm 4 mps 752 mmHg 53%
    05:00 +25°C° 0 mm 4 mps 752 mmHg 50%
    06:00 +27°C° 0 mm 4 mps 752 mmHg 47%
    07:00 +28°C° 0 mm 4 mps 753 mmHg 45%
    08:00 +30°C° 0 mm 4 mps 753 mmHg 40%
    09:00 +33°C° 0 mm 4 mps 753 mmHg 36%
    10:00 +35°C° 0 mm 4 mps 753 mmHg 31%
    11:00 +36°C° 0 mm 5 mps 753 mmHg 29%
    12:00 +36°C° 0 mm 5 mps 753 mmHg 28%
    13:00 +38°C° 0 mm 6 mps 753 mmHg 26%
    14:00 +38°C° 0 mm 6 mps 752 mmHg 27%
    15:00 +38°C° 0 mm 7 mps 752 mmHg 27%
    16:00 +36°C° 0 mm 7 mps 752 mmHg 28%
    17:00 +34°C° 0 mm 7 mps 752 mmHg 33%
    18:00 +32°C° 0 mm 7 mps 753 mmHg 39%
    19:00 +29°C° 0 mm 7 mps 753 mmHg 44%
    20:00 +28°C° 0 mm 5 mps 753 mmHg 46%
    21:00 +27°C° 0 mm 4 mps 754 mmHg 47%
    22:00 +26°C° 0 mm 3 mps 754 mmHg 49%
    23:00 +25°C° 0 mm 3 mps 754 mmHg 46%

    25 July, Thursday

    Time Temperature Precipitation Wind Pressure Humidity
    00:00 +25°C° 0 mm 2 mps 754 mmHg 44%
    01:00 +24°C° 0 mm 2 mps 754 mmHg 41%
    02:00 +24°C° 0 mm 2 mps 754 mmHg 41%
    03:00 +24°C° 0 mm 2 mps 754 mmHg 41%
    04:00 +23°C° 0 mm 2 mps 754 mmHg 41%
    05:00 +25°C° 0 mm 2 mps 754 mmHg 39%
    06:00 +27°C° 0 mm 2 mps 755 mmHg 37%
    07:00 +28°C° 0 mm 2 mps 755 mmHg 35%
    08:00 +31°C° 0 mm 2 mps 755 mmHg 32%
    09:00 +34°C° 0 mm 2 mps 755 mmHg 28%
    10:00 +36°C° 0 mm 2 mps 755 mmHg 24%
    11:00 +36°C° 0 mm 3 mps 755 mmHg 25%
    12:00 +36°C° 0 mm 3 mps 755 mmHg 26%
    13:00 +37°C° 0 mm 4 mps 754 mmHg 26%
    14:00 +36°C° 0 mm 4 mps 754 mmHg 28%
    15:00 +35°C° 0 mm 4 mps 754 mmHg 30%
    16:00 +34°C° 0 mm 4 mps 754 mmHg 32%
    17:00 +32°C° 0 mm 4 mps 754 mmHg 39%
    18:00 +29°C° 0 mm 3 mps 754 mmHg 47%
    19:00 +27°C° 0 mm 2 mps 754 mmHg 54%
    20:00 +26°C° 0 mm 2 mps 754 mmHg 56%
    21:00 +25°C° 0 mm 1 mps 754 mmHg 57%
    22:00 +25°C° 0 mm 1 mps 755 mmHg 59%
    23:00 +24°C° 0 mm 1 mps 754 mmHg 59%
    Show more